User: anonymous   Login
Location: Unspecified
(0.0000°N, 0.0000°E)
Time: 01:30:37
(UTC+00:00)
Language:

UHF F/O F2 - Orbit

View from above orbital plane
View from above orbital plane
View from above satellite
View from above satellite

Ground track
Ground track

The orbit data is extracted from the following two-line orbital elements,

1 22787U 93056A   24111.32271625  .00000128  00000-0  00000-0 0  9997
2 22787  11.6413   7.6669 0005553  28.5362 317.5630  1.00269748110646
Epoch (UTC): 20 April 2024 07:44:42
Eccentricity: 0.0005553
inclination: 11.6413°
perigee height: 35763 km
apogee height: 35810 km
right ascension of ascending node: 7.6669°
argument of perigee: 28.5362°
revolutions per day: 1.00269748
mean anomaly at epoch: 317.5630°
orbit number at epoch: 11064

The dashed part of the orbit path shows where the satellite is in the earth's shadow,  

DLR